Location: Conjunto Santa Maria
(19.9513°S, 43.9599°W)
Time: 12:16:43
(UTC+00:00)

CZ-2C R/B - Pass Details

Date: 21 January 2021
Orbit: 704 x 908 km, 98.1° (Epoch: 03 March)

Event Time Altitude Azimuth Distance (km) Brightness Sun altitude
Rises 22:26:48 0° 180° (S) 3,122 6.5 -10.7°
Reaches altitude 10° 22:29:09 10° 188° (S) 2,208 5.9 -11.2°
Maximum altitude 22:33:37 39° 255° (WSW) 1,086 4.5 -12.1°
Drops below altitude 10° 22:38:13 10° 324° (NW) 2,265 5.6 -13.1°
Sets 22:40:40 0° 331° (NNW) 3,213 6.3 -13.6°
